Tracking 21076 objects as of 9-Aug-2020
HD Live streaming from Space Station
objects crossing your sky now
Track the most recent launched group of Starlink satellites

COSMOS 1249 COOLANT

Track COSMOS 1249 COOLANT now!
10-day predictions


NORAD ID: 27570
Int'l Code: 1981-021S
Perigee: 885.4 km
Apogee: 976.5 km
Inclination: 65.0 °
Period: 103.5 minutes
Semi major axis: 7301 km
RCS: 0.0052 m2 (small)
Launch date: March 5, 1981
Source: Commonwealth of Independent States (former USSR) (CIS)
Launch site: TYURATAM MISSILE AND SPACE COMPLEX (TTMTR)

Note: This is SATELLITE DEBRIS
aabbcc
Your satellite tracking list
Your tracking list is empty




NASA's NSSDC Master Catalog

Two Line Element Set (TLE):
1 27570U 81021S   20221.19570222 -.00000027  00000-0  49314-4 0  9993
2 27570  64.9611 144.6977 0062395 238.9767 120.5160 13.91368196940673
Source of the keplerian elements: AFSPC